Location: Arrien
(43.3167°N, 0.1500°W)
Time: 16:38:10
(UTC+00:00)

Cosmos 1544 Rocket - Pass Details

Date: 05 June 2022
Orbit: 603 x 631 km, 82.5° (Epoch: 29 June)

Event Time Altitude Azimuth Distance (km) Brightness Sun altitude
Rises 00:36:51 0° 351° (N) 2,896 8.2 -23.6°
Reaches altitude 10° 00:39:05 10° 351° (N) 1,981 7.1 -23.5°
Maximum altitude 00:43:28 87° 262° (W) 617 3.4 -23.4°
Enters shadow 00:43:35 84° 208° (SSW) 619 3.4 -23.4°
